Paso Robles, CA

8:09 PM PST on December 11, 2019 (GMT -0800)
Paso Robles Municipal

Weather History for KPRB - October, 2019

Change the Weather History Date:

Saturday, October 26, 2019

  Actual Average Record
Temperature  
Mean Temperature 66 °F 59 °F  
Max Temperature 90 °F 75 °F 95 °F (2017)
Min Temperature 42 °F 42 °F 30 °F (1971)
Degree Days  
Heating Degree Days 0 6  
Month to date heating degree days 85 101  
Since 1 July heating degree days 111 133  
Cooling Degree Days 1 0  
Month to date cooling degree days 28 34  
Year to date cooling degree days 1063 925  
Growing Degree Days 16 (Base 50)    
Moisture  
Dew Point 32 °F    
Average Humidity 36    
Maximum Humidity 71    
Minimum Humidity 10    
Precipitation  
Precipitation 0.00 in 0.03 in 1.10 in (2004)
Month to date precipitation 0.00 0.46  
Year to date precipitation 11.28 9.58  
Sea Level Pressure  
Sea Level Pressure 29.84 in    
Wind  
Wind Speed 2 mph ()    
Max Wind Speed 10 mph    
Max Gust Speed 13 mph    
Visibility 10.0 miles    
Events      
T = Trace of Precipitation, MM = Missing Value Source: Averaged Metar Reports

Daily Weather History Graph

Daily Weather History Graph

Search for Another Location

Airport or City:

Astronomy

Oct. 26, 2019 Rise Set
Actual Time 7:18 AM PDT 6:13 PM PDT
Civil Twilight 6:52 AM PDT 6:39 PM PDT
Nautical Twilight 6:22 AM PDT 7:09 PM PDT
Astronomical Twilight 5:53 AM PDT 7:39 PM PDT
Moon 5:26 AM PDT (10/26) 5:47 PM PDT (10/26)
Length of Visible Light 11h 47m
Length of Day
10h 54m
Waning Crescent, 3% of the Moon is Illuminated
Oct 26
Waning Crescent
Oct 27
New
Nov 4
First Quarter
Nov 12
Full
Nov 19
Last Quarter

Hourly Weather History & Observations

Time (PDT) Temp. Dew Point Humidity Pressure Visibility Wind Dir Wind Speed Gust Speed Precip Events Conditions
12:53 AM 54.0 °F 30.9 °F 41% 29.98 in 10.0 mi East 3.5 mph - N/A   Clear
1:53 AM 52.0 °F 30.0 °F 43% 29.97 in 10.0 mi Calm Calm - N/A   Clear
2:53 AM 51.1 °F 30.0 °F 44% 29.96 in 10.0 mi Calm Calm - N/A   Clear
3:53 AM 46.0 °F 28.0 °F 50% 29.94 in 10.0 mi Calm Calm - N/A   Clear
4:53 AM 48.0 °F 30.0 °F 50% 29.93 in 10.0 mi Calm Calm - N/A   Clear
5:53 AM 45.0 °F 28.9 °F 53% 29.93 in 10.0 mi Calm Calm - N/A   Clear
6:53 AM 44.1 °F 28.9 °F 55% 29.92 in 10.0 mi Calm Calm - N/A   Clear
7:53 AM 45.0 °F 28.9 °F 53% 29.92 in 10.0 mi Calm Calm - N/A   Clear
8:53 AM 50.0 °F 30.9 °F 48% 29.92 in 10.0 mi SW 3.5 mph - N/A   Clear
9:53 AM 57.9 °F 32.0 °F 37% 29.92 in 10.0 mi Calm Calm - N/A   Partly Cloudy
10:53 AM 64.0 °F 33.1 °F 31% 29.90 in 10.0 mi Calm Calm - N/A   Clear
11:53 AM 72.0 °F 33.1 °F 24% 29.87 in 10.0 mi Calm Calm - N/A   Clear
12:53 PM 78.1 °F 33.1 °F 19% 29.83 in 10.0 mi Calm Calm - N/A   Clear
1:53 PM 84.9 °F 30.0 °F 14% 29.78 in 10.0 mi Calm Calm - N/A   Clear
2:53 PM 88.0 °F 28.0 °F 12% 29.75 in 10.0 mi East 3.5 mph - N/A   Clear
3:53 PM 89.1 °F 28.0 °F 11% 29.74 in 10.0 mi WNW 4.6 mph - N/A   Clear
4:53 PM 89.1 °F 27.0 °F 11% 29.71 in 10.0 mi SW 4.6 mph - N/A   Clear
5:53 PM 82.9 °F 32.0 °F 16% 29.71 in 10.0 mi SSW 8.1 mph - N/A   Clear
6:53 PM 73.0 °F 34.0 °F 24% 29.73 in 10.0 mi WNW 9.2 mph - N/A   Clear
7:53 PM 69.1 °F 35.1 °F 29% 29.73 in 10.0 mi NW 8.1 mph - N/A   Clear
8:53 PM 64.9 °F 37.0 °F 36% 29.73 in 10.0 mi WNW 5.8 mph - N/A   Clear
9:53 PM 61.0 °F 39.0 °F 44% 29.74 in 10.0 mi NW 3.5 mph - N/A   Clear
10:53 PM 57.0 °F 42.1 °F 57% 29.75 in 10.0 mi WNW 6.9 mph - N/A   Clear
11:53 PM 54.0 °F 44.1 °F 69% 29.74 in 10.0 mi Calm Calm - N/A   Clear